Location: Beneden-Haastrecht
(52.0012°N, 4.7557°E)
Time: 03:10:25
(UTC+00:00)

Lacrosse 5 - Pass Details

Date: 24 October 2020
Orbit: 716 x 723 km, 57.0° (Epoch: 06 November)

Event Time Altitude Azimuth Distance (km) Brightness Sun altitude
Rises 17:27:07 0° 256° (WSW) 3,117 7.4 -9.8°
Reaches altitude 10° 17:29:32 10° 260° (W) 2,198 6.0 -10.2°
Maximum altitude 17:34:32 62° 341° (NNW) 810 2.2 -10.9°
Enters shadow 17:38:58 13° 61° (ENE) 1,974 3.6 -11.6°
